Date String (YYYY-MM-DD hh:mm:ss) UTC,Instrument flags,Ambient pressure (hPa),Sample flow (lpm),Bypass flow (lpm),Sample temperature (°C),Ambient temperature (°C),ASC tube jacket temperature (°C),LED temperature (°C),Box temperature (°C),Sample RH (%),Span deviation,Mass concentration (μg/m³),Mass concentration (μg/m³),Mass concentration (μg/m³)
DateTimeUTC,F1_M11,P_M11,Q1_M11,Q2_M11,T1_M11,T2_M11,T3_M11,T4_M11,T5_M11,U1_M11,ZSPAN_M11,X2_M11,X0_M11,X1_M11
2022-10-28 06:00:00,,0831.5,4.97,0.00,24.3,22.7,00.0,33.2,26.1,14.3,0000.0,0002.59,0005.33,0002.28
2022-10-28 06:01:00,,0831.5,5.01,0.00,24.3,22.6,00.0,33.2,26.1,14.2,0000.0,0002.54,0004.78,0002.27
2022-10-28 06:02:00,,0831.5,5.00,0.00,24.3,22.6,00.0,33.2,26.1,14.0,0000.0,0002.55,0003.67,0002.27
2022-10-28 06:03:00,,0831.5,5.00,0.00,24.3,22.6,00.0,33.1,26.1,14.0,0000.0,0002.51,0003.32,0002.27
2022-10-28 06:04:00,,0831.5,5.00,0.00,24.3,22.6,00.0,33.1,26.1,14.3,0000.0,0002.50,0003.34,0002.26
2022-10-28 06:05:00,,0831.5,5.00,0.00,24.3,22.6,00.0,33.1,26.1,14.6,0000.0,0002.52,0003.42,0002.25
2022-10-28 06:06:00,,0831.5,5.00,0.00,24.3,22.6,00.0,33.1,26.1,14.6,0000.0,0002.52,0003.42,0002.26
2022-10-28 06:07:00,,0831.5,5.00,0.00,24.3,22.6,00.0,33.1,26.1,14.4,0000.0,0002.52,0003.42,0002.27
2022-10-28 06:08:00,,0831.5,5.00,0.00,24.2,22.6,00.0,33.1,26.0,14.1,0000.0,0002.50,0003.39,0002.26
2022-10-28 06:09:00,,0831.5,5.00,0.00,24.2,22.6,00.0,33.1,26.0,13.7,0000.0,0002.50,0003.51,0002.26
2022-10-28 06:10:00,,0831.5,5.00,0.00,24.2,22.5,00.0,33.1,26.0,13.9,0000.0,0002.55,0004.64,0002.27
2022-10-28 06:11:00,,0831.5,4.99,0.00,24.2,22.5,00.0,33.1,26.0,13.9,0000.0,0002.57,0004.72,0002.26
2022-10-28 06:12:00,,0831.5,5.00,0.00,24.2,22.5,00.0,33.1,26.0,13.8,0000.0,0002.59,0004.63,0002.26
2022-10-28 06:13:00,,0831.5,5.00,0.00,24.2,22.5,00.0,33.1,25.9,13.6,0000.0,0002.62,0004.67,0002.26
2022-10-28 06:14:00,,0831.5,5.01,0.00,24.2,22.5,00.0,33.1,26.0,14.1,0000.0,0002.66,0004.76,0002.26
2022-10-28 06:15:00,,0831.5,5.01,0.00,24.2,22.5,00.0,33.1,26.0,13.8,0000.0,0002.64,0004.74,0002.25
2022-10-28 06:16:00,,0831.5,5.00,0.00,24.2,22.5,00.0,33.1,26.0,13.5,0000.0,0002.61,0004.73,0002.24
2022-10-28 06:17:00,,0831.5,4.99,0.00,24.2,22.5,00.0,33.0,26.0,13.8,0000.0,0002.60,0004.73,0002.24
2022-10-28 06:18:00,,0831.4,5.00,0.00,24.2,22.5,00.0,33.0,26.0,13.9,0000.0,0002.63,0005.00,0002.24
2022-10-28 06:19:00,,0831.5,5.00,0.00,24.2,22.5,00.0,33.0,25.9,13.9,0000.0,0002.65,0005.82,0002.24
2022-10-28 06:20:00,,0831.5,5.00,0.00,24.1,22.5,00.0,33.0,25.9,14.0,0000.0,0002.69,0005.92,0002.24
2022-10-28 06:21:00,,0831.5,4.99,0.00,24.1,22.4,00.0,33.0,25.9,13.6,0000.0,0002.72,0005.42,0002.23
2022-10-28 06:22:00,,0831.5,5.00,0.00,24.1,22.4,00.0,33.0,25.9,13.4,0000.0,0002.66,0004.80,0002.24
2022-10-28 06:23:00,,0831.5,5.02,0.00,24.1,22.4,00.0,33.0,25.9,13.3,0000.0,0002.65,0004.77,0002.25
2022-10-28 06:24:00,,0831.5,5.00,0.00,24.1,22.4,00.0,33.0,25.9,12.9,0000.0,0002.64,0004.80,0002.27
2022-10-28 06:25:00,,0831.4,5.00,0.00,24.1,22.4,00.0,33.0,25.9,12.8,0000.0,0002.62,0004.76,0002.29
2022-10-28 06:26:00,,0831.4,5.00,0.00,24.1,22.4,00.0,33.0,25.8,12.8,0000.0,0002.65,0004.78,0002.31
2022-10-28 06:27:00,,0831.4,4.99,0.00,24.1,22.4,00.0,33.0,25.8,12.7,0000.0,0002.66,0004.77,0002.32
2022-10-28 06:28:00,,0831.4,5.00,0.00,24.1,22.4,00.0,33.0,25.8,12.7,0000.0,0002.70,0004.81,0002.33
2022-10-28 06:29:00,,0831.4,5.00,0.00,24.1,22.4,00.0,33.0,25.8,12.5,0000.0,0002.72,0004.70,0002.34
2022-10-28 06:30:00,,0831.4,5.00,0.00,24.0,22.4,00.0,33.0,25.8,12.4,0000.0,0002.73,0004.06,0002.36
2022-10-28 06:31:00,,0831.4,5.00,0.00,24.0,22.4,00.0,32.9,25.8,12.4,0000.0,0002.71,0004.02,0002.37
2022-10-28 06:32:00,,0831.4,5.00,0.00,24.0,22.4,00.0,32.9,25.8,12.4,0000.0,0002.67,0003.77,0002.38
2022-10-28 06:33:00,,0831.4,5.00,0.00,24.0,22.4,00.0,32.9,25.7,12.3,0000.0,0002.69,0003.75,0002.38
2022-10-28 06:34:00,,0831.2,5.00,0.00,24.0,22.4,00.0,32.9,25.8,12.2,0000.0,0002.78,0004.28,0002.39
2022-10-28 06:35:00,,0831.2,5.00,0.00,24.0,22.4,00.0,32.9,25.7,12.2,0000.0,0002.82,0004.57,0002.40
2022-10-28 06:36:00,,0831.2,5.00,0.00,24.0,22.3,00.0,32.9,25.7,12.3,0000.0,0002.84,0004.58,0002.42
2022-10-28 06:37:00,,0831.2,5.00,0.00,24.0,22.3,00.0,32.9,25.7,12.4,0000.0,0002.87,0004.59,0002.44
2022-10-28 06:38:00,,0831.2,5.00,0.00,24.0,22.3,00.0,32.9,25.7,12.5,0000.0,0002.93,0004.69,0002.47
2022-10-28 06:39:00,,0831.2,4.98,0.00,24.0,22.3,00.0,32.9,25.6,12.5,0000.0,0002.92,0004.66,0002.48
2022-10-28 06:40:00,,0831.2,5.02,0.00,23.9,22.3,00.0,32.9,25.6,12.5,0000.0,0002.97,0004.83,0002.50
2022-10-28 06:41:00,,0831.2,5.00,0.00,23.9,22.2,00.0,32.9,25.6,12.5,0000.0,0003.00,0004.89,0002.51
2022-10-28 06:42:00,,0831.2,5.00,0.00,23.9,22.2,00.0,32.9,25.6,12.5,0000.0,0003.03,0004.98,0002.51
2022-10-28 06:43:00,,0831.3,5.00,0.00,23.9,22.2,00.0,32.9,25.5,12.5,0000.0,0003.06,0005.07,0002.53
2022-10-28 06:44:00,,0831.2,5.00,0.00,23.9,22.2,00.0,32.8,25.6,12.5,0000.0,0003.08,0005.12,0002.56
2022-10-28 06:45:00,,0831.3,5.00,0.00,23.9,22.2,00.0,32.8,25.5,12.6,0000.0,0003.07,0004.82,0002.57
2022-10-28 06:46:00,,0831.3,4.99,0.00,23.9,22.1,00.0,32.8,25.6,12.5,0000.0,0003.12,0006.52,0002.58
2022-10-28 06:47:00,,0831.3,5.00,0.00,23.8,22.1,00.0,32.8,25.5,12.5,0000.0,0003.15,0007.27,0002.58
2022-10-28 06:48:00,,0831.2,5.00,0.00,23.8,22.1,00.0,32.8,25.5,12.5,0000.0,0003.17,0007.36,0002.57
2022-10-28 06:49:00,,0831.3,5.01,0.00,23.8,22.1,00.0,32.8,25.5,12.6,0000.0,0003.18,0007.39,0002.57
2022-10-28 06:50:00,,0831.3,5.01,0.00,23.8,22.1,00.0,32.8,25.5,12.6,0000.0,0003.22,0007.79,0002.59
2022-10-28 06:51:00,,0831.4,4.97,0.00,23.8,22.1,00.0,32.8,25.5,12.7,0000.0,0003.22,0008.30,0002.59
2022-10-28 06:52:00,,0831.4,5.00,0.00,23.8,22.1,00.0,32.8,25.5,12.8,0000.0,0003.20,0008.31,0002.59
2022-10-28 06:53:00,,0831.4,5.00,0.00,23.8,22.1,00.0,32.7,25.5,12.9,0000.0,0003.21,0008.35,0002.59
2022-10-28 06:54:00,,0831.4,5.01,0.00,23.8,22.1,00.0,32.7,25.5,12.9,0000.0,0003.20,0008.34,0002.57
2022-10-28 06:55:00,,0831.4,5.00,0.00,23.8,22.1,00.0,32.7,25.4,12.8,0000.0,0003.22,0008.42,0002.56
2022-10-28 06:56:00,,0831.3,5.00,0.00,23.7,22.0,00.0,32.7,25.4,12.9,0000.0,0003.20,0008.42,0002.56
2022-10-28 06:57:00,,0831.3,5.00,0.00,23.7,22.0,00.0,32.7,25.4,12.8,0000.0,0003.15,0007.04,0002.55
2022-10-28 06:58:00,,0831.3,5.00,0.00,23.7,22.1,00.0,32.7,25.5,12.8,0000.0,0003.14,0006.91,0002.54
2022-10-28 06:59:00,,0831.3,5.00,0.00,23.7,22.0,00.0,32.7,25.4,13.0,0000.0,0003.14,0007.71,0002.52
